Total_Precipitation_Accumulation
0.08 0.09 0.19 0.15 0.12 0.17 0.22 0.21 0.20 0.18 0.15 0.16 0.18 0.19 0.21 0.23 0.25 0.23 0.20 0.23 0.25 0.25 0.28 0.33 0.33 0.35 0.37 0.33 0.32 0.28 0.27 0.27 0.34 0.44 0.50 0.48 0.51 0.69 0.96 1.04 1.09 0.69 0.59
0.03 0.05 0.13 0.13 0.11 0.15 0.19 0.21 0.22 0.21 0.16 0.15 0.18 0.22 0.27 0.27 0.22 0.20 0.23 0.25 0.22 0.24 0.25 0.26 0.27 0.28 0.31 0.28 0.25 0.23 0.29 0.37 0.48 0.62 0.62 0.50 0.52 0.72 0.89 0.90 1.09 0.64 0.53
0.04 0.04 0.09 0.12 0.12 0.14 0.18 0.19 0.22 0.22 0.19 0.16 0.16 0.17 0.21 0.20 0.18 0.18 0.23 0.23 0.21 0.24 0.22 0.22 0.22 0.22 0.24 0.23 0.23 0.27 0.37 0.50 0.69 0.81 0.96 0.60 0.39 0.68 0.79 0.79 0.72 0.56 0.55
0.08 0.04 0.04 0.10 0.13 0.13 0.16 0.20 0.22 0.20 0.18 0.16 0.20 0.20 0.20 0.17 0.17 0.17 0.19 0.21 0.22 0.22 0.21 0.19 0.17 0.17 0.19 0.20 0.24 0.33 0.45 0.59 0.74 1.07 1.18 0.59 0.33 0.46 0.60 0.62 0.54 0.50 0.48
0.08 0.06 0.06 0.09 0.11 0.13 0.15 0.18 0.21 0.20 0.17 0.18 0.24 0.25 0.24 0.18 0.20 0.21 0.21 0.19 0.19 0.19 0.17 0.16 0.15 0.14 0.17 0.20 0.26 0.35 0.46 0.58 0.80 1.00 0.77 0.66 0.61 0.49 0.48 0.52 0.50 0.49 0.41
0.11 0.07 0.10 0.11 0.12 0.13 0.14 0.17 0.22 0.25 0.21 0.22 0.23 0.25 0.26 0.24 0.27 0.26 0.19 0.19 0.20 0.20 0.17 0.15 0.15 0.15 0.17 0.21 0.26 0.34 0.46 0.64 0.81 0.60 0.51 0.50 0.53 0.52 0.47 0.59 0.63 0.57 0.47
0.15 0.09 0.11 0.15 0.14 0.13 0.13 0.16 0.18 0.22 0.24 0.26 0.26 0.24 0.23 0.22 0.25 0.26 0.20 0.18 0.18 0.18 0.16 0.16 0.17 0.21 0.23 0.25 0.29 0.36 0.50 0.73 0.68 0.46 0.48 0.56 0.53 0.45 0.54 0.76 0.90 0.80 0.65
0.26 0.17 0.17 0.20 0.18 0.17 0.16 0.17 0.18 0.19 0.20 0.20 0.21 0.21 0.19 0.19 0.25 0.30 0.28 0.21 0.18 0.16 0.17 0.18 0.19 0.23 0.26 0.27 0.32 0.37 0.47 0.54 0.37 0.36 0.38 0.46 0.38 0.38 0.63 0.85 1.01 0.99 0.88
0.43 0.27 0.25 0.24 0.22 0.23 0.28 0.24 0.23 0.22 0.22 0.24 0.25 0.24 0.23 0.23 0.24 0.27 0.32 0.29 0.22 0.23 0.24 0.23 0.22 0.23 0.25 0.27 0.32 0.38 0.44 0.48 0.41 0.44 0.43 0.43 0.38 0.56 0.93 1.06 1.05 1.06 1.01
0.82 0.56 0.41 0.32 0.31 0.27 0.25 0.28 0.29 0.29 0.28 0.27 0.27 0.26 0.27 0.27 0.28 0.31 0.31 0.35 0.33 0.37 0.38 0.33 0.30 0.30 0.30 0.30 0.36 0.43 0.45 0.47 0.53 0.54 0.50 0.39 0.45 0.74 1.09 1.23 1.24 1.18 1.09
0.99 0.78 0.63 0.49 0.41 0.36 0.29 0.31 0.39 0.40 0.39 0.36 0.41 0.38 0.40 0.50 0.51 0.57 0.53 0.60 0.60 0.59 0.60 0.55 0.55 0.56 0.53 0.44 0.50 0.61 0.55 0.56 0.66 0.61 0.49 0.39 0.55 0.83 1.14 1.28 1.30 1.27 1.16
1.16 0.98 0.85 0.68 0.53 0.46 0.45 0.56 0.71 0.62 0.61 0.64 0.77 0.77 0.89 1.07 1.04 0.71 0.74 0.99 1.10 1.16 1.13 1.08 1.07 0.91 0.78 0.72 1.10 1.29 0.72 0.70 0.75 0.69 0.60 0.61 0.83 1.10 1.38 1.34 1.26 1.28 1.17
1.54 1.33 1.11 0.94 0.77 0.68 0.81 0.74 0.82 0.95 1.03 1.05 1.10 1.11 1.24 1.20 1.02 0.86 0.95 1.21 1.46 1.54 1.44 1.62 1.66 1.30 1.36 1.57 1.57 1.43 1.00 1.11 1.10 1.02 0.89 1.02 1.23 1.52 1.90 1.72 1.42 1.29 1.22
1.76 1.64 1.58 1.35 1.17 1.22 1.17 0.92 0.88 0.92 1.01 1.14 1.38 1.35 1.42 1.58 1.49 1.41 1.44 1.49 1.63 1.84 2.06 2.05 2.19 2.03 1.95 1.84 1.82 1.70 1.47 1.50 1.45 1.58 1.52 1.41 1.48 1.71 2.18 2.15 1.73 1.46 1.30
1.94 1.89 1.86 1.81 1.65 1.70 1.50 1.30 1.15 1.24 1.25 1.31 1.43 1.54 1.51 1.72 1.87 1.86 1.79 1.75 1.69 1.79 1.96 2.12 2.18 2.49 2.59 2.24 1.86 1.74 1.71 1.78 1.70 1.71 1.65 1.59 1.52 1.64 1.99 2.21 2.07 1.85 1.58
2.34 2.35 2.16 2.10 2.10 2.05 1.94 1.90 1.81 1.61 1.61 1.58 1.53 1.53 1.57 1.77 1.98 2.08 1.96 1.92 1.79 1.77 1.94 2.12 2.29 2.72 2.71 2.54 2.10 1.90 1.81 1.79 1.64 1.57 1.66 1.86 1.70 1.58 1.69 1.96 2.16 2.13 1.98
2.77 2.78 2.76 2.70 2.82 2.74 2.55 2.41 2.22 2.01 1.86 1.83 1.86 1.87 1.78 1.81 1.95 1.95 1.79 1.72 1.76 1.90 2.05 2.12 2.27 2.55 2.28 2.26 2.04 1.92 1.73 1.56 1.39 1.35 1.54 1.72 1.61 1.56 1.66 1.78 1.94 2.03 2.11
3.01 3.13 3.26 3.29 3.26 3.10 3.04 2.94 2.70 2.46 2.24 2.08 2.00 2.03 1.89 1.83 1.83 1.95 1.77 1.64 1.95 2.05 2.12 2.32 2.43 2.43 2.36 2.32 2.09 1.83 1.64 1.53 1.25 1.14 1.17 1.26 1.42 1.27 1.51 1.71 1.74 1.79 1.99
3.47 3.68 3.80 3.82 3.67 3.41 3.38 3.31 3.14 2.93 2.56 2.24 2.08 2.00 1.87 1.82 1.90 2.13 2.06 2.11 2.28 2.32 2.31 2.22 2.48 2.46 2.36 2.31 2.06 1.79 1.49 1.32 1.14 0.99 0.92 0.88 1.00 1.07 1.14 1.31 1.44 1.52 1.86
3.94 4.30 4.11 4.01 4.13 3.98 3.78 3.58 3.26 2.80 2.42 2.27 2.19 2.01 1.93 1.93 2.02 2.31 2.14 2.10 2.24 2.35 2.35 2.32 2.29 2.30 2.11 2.07 1.94 1.65 1.32 1.03 0.95 0.83 0.71 0.69 0.73 0.70 0.82 1.02 1.25 1.14 1.46
3.95 4.34 4.50 4.46 4.29 4.02 3.59 3.22 2.95 2.72 2.56 2.31 2.15 2.05 1.96 1.88 1.96 2.23 2.11 2.18 2.16 2.14 2.15 2.20 2.22 2.06 1.72 1.90 1.98 1.55 1.13 0.88 0.83 0.62 0.57 0.58 0.59 0.59 0.73 0.94 1.11 1.13 1.09
3.64 4.08 4.35 4.48 4.30 3.89 3.43 3.12 2.93 2.89 2.56 2.24 2.19 2.17 2.00 2.03 2.01 2.03 2.09 2.05 2.06 2.11 2.04 2.00 2.07 1.89 1.56 1.68 1.80 1.77 1.26 0.96 0.75 0.55 0.60 0.67 0.72 0.77 0.78 0.83 0.97 1.12 1.13
3.16 3.46 3.56 3.69 3.63 3.40 3.35 3.21 3.05 3.00 2.64 2.46 2.44 2.40 2.23 2.20 2.14 2.12 2.07 1.93 1.80 1.70 1.68 1.74 1.80 1.77 1.59 1.52 1.68 1.90 1.56 1.16 1.00 0.74 0.68 0.69 0.81 0.92 0.87 0.89 0.93 1.08 1.19
2.70 3.03 3.27 3.30 3.22 3.08 3.09 2.97 2.76 2.51 2.39 2.48 2.67 2.60 2.33 2.11 1.94 1.73 1.60 1.60 1.56 1.51 1.48 1.35 1.42 1.49 1.41 1.30 1.40 1.51 1.58 1.57 1.49 1.02 0.71 0.64 0.75 0.86 0.94 0.86 0.81 0.93 1.09
2.27 2.54 2.83 3.08 3.14 3.02 2.98 2.82 2.74 2.56 2.48 2.47 2.40 2.29 2.08 1.85 1.60 1.33 1.24 1.27 1.26 1.24 1.21 1.15 1.18 1.13 1.11 1.11 1.22 1.38 1.46 1.52 1.51 1.42 1.07 0.94 0.92 0.82 0.84 0.84 0.87 0.88 0.94
1.86 1.96 2.13 2.39 2.62 2.69 2.67 2.58 2.48 2.34 2.25 2.15 1.94 1.75 1.59 1.45 1.25 1.02 0.93 0.99 1.03 1.10 1.07 1.02 1.03 0.98 1.03 1.15 1.16 1.24 1.37 1.34 1.34 1.44 1.24 1.12 1.05 0.88 0.85 0.90 0.90 0.97 0.97